User: anonymous   Login
Location: Unspecified
(0.0000°N, 0.0000°E)
Time: 15:12:19
(UTC+00:00)
Language:

UHF F/O F4 - Orbit

View from above orbital plane
View from above orbital plane
View from above satellite
View from above satellite

Ground track
Ground track

The orbit data is extracted from the following two-line orbital elements,

1 23467U 95003A   15226.47161499 0.00000000  00000-0  00000-0 0    09
2 23467   8.9544  32.7379 0004453   6.0286 354.0023  1.00270000    00
Epoch (UTC): 14 August 2015 11:19:07
Eccentricity: 0.0004453
inclination: 8.9544°
perigee height: 35768 km
apogee height: 35805 km
right ascension of ascending node: 32.7379°
argument of perigee: 6.0286°
revolutions per day: 1.00270000
mean anomaly at epoch: 354.0023°
orbit number at epoch: 0

The dashed part of the orbit path shows where the satellite is in the earth's shadow,  

DLR